Weather History for KAPN - November, 2012

Change the Weather History Date:

Tuesday, November 20, 2012

  Actual Average Record
Temperature  
Mean Temperature 42 °F 34 °F  
Max Temperature 51 °F 41 °F 65 °F (1953)
Min Temperature 32 °F 27 °F 8 °F (1951)
Degree Days  
Heating Degree Days 23 31  
Month to date heating degree days 547 550  
Since 1 July heating degree days 1387 1494  
Moisture  
Dew Point 36 °F    
Average Humidity 80    
Maximum Humidity 100    
Minimum Humidity 59    
Precipitation  
Precipitation T in 0.07 in 1.50 in (1948)
Month to date precipitation 0.53 1.42  
Year to date precipitation 24.73 25.73  
Snow  
Snow 0.00 in 0.40 in 3.80 in (1981)
Month to date snowfall T 3.9  
Since 1 July snowfall T 4.3  
Snow Depth 0.00 in    
Sea Level Pressure  
Sea Level Pressure 30.14 in    
Wind  
Wind Speed 0 mph (SW)    
Max Wind Speed 7 mph    
Max Gust Speed 7 mph    
Visibility 7 miles    
Events      
T = Trace of Precipitation, MM = Missing Value Source: NWS Daily Summary

Daily Weather History Graph

Daily Weather History Graph

Search for Another Location

Airport or City:

Trip Planner

Search our weather history database for the weather conditions in past years. The results will help you decide how hot, cold, wet, or windy it might be!

Date:

Astronomy

Nov. 20, 2012 Rise Set
Actual Time 7:39 AM EST 5:00 PM EST
Civil Twilight 7:07 AM EST 5:32 PM EST
Nautical Twilight 6:31 AM EST 6:08 PM EST
Astronomical Twilight 5:56 AM EST 6:43 PM EST
Moon 1:03 PM EST (11/20) No Moon Set
Length of Visible Light 10h 25m
Length of Day
9h 20m
Waxing Crescent, 51% of the Moon is Illuminated
Nov 20
Waxing Crescent
Nov 28
Full
Dec 6
Last Quarter
Dec 13
New
Dec 20
First Quarter

Hourly Weather History & Observations

Time (EST) Temp. Windchill Dew Point Humidity Pressure Visibility Wind Dir Wind Speed Gust Speed Precip Events Conditions
12:54 AM 37.9 °F - 35.1 °F 89% 30.17 in 10.0 mi Calm Calm - N/A   Overcast
1:54 AM 39.0 °F - 36.0 °F 89% 30.15 in 8.0 mi Calm Calm - N/A   Overcast
2:54 AM 37.0 °F - 35.1 °F 93% 30.15 in 6.0 mi Calm Calm - N/A   Mostly Cloudy
3:21 AM 33.8 °F - 33.8 °F 100% 30.13 in 1.8 mi Calm Calm - N/A   Partly Cloudy
3:32 AM 33.8 °F - 33.8 °F 100% 30.13 in 3.0 mi Calm Calm - N/A   Mostly Cloudy
3:54 AM 33.1 °F 28.7 °F 32.0 °F 96% 30.14 in 4.0 mi SSE 4.6 mph - N/A   Mostly Cloudy
4:54 AM 34.0 °F - 33.1 °F 96% 30.13 in 5.0 mi Calm Calm - N/A   Overcast
5:54 AM 34.0 °F - 33.1 °F 96% 30.14 in 7.0 mi Calm Calm - N/A   Overcast
6:54 AM 35.1 °F - 34.0 °F 96% 30.13 in 4.0 mi Calm Calm - N/A   Overcast
7:54 AM 36.0 °F - 34.0 °F 93% 30.14 in 5.0 mi Calm Calm - N/A   Overcast
8:00 AM 37.4 °F - 35.6 °F 93% 30.12 in 5.0 mi Calm Calm - N/A   Mostly Cloudy
8:54 AM 37.0 °F - 35.1 °F 93% 30.15 in 4.0 mi Calm Calm - N/A   Overcast
9:54 AM 41.0 °F - 37.0 °F 86% 30.14 in 7.0 mi Calm Calm - N/A   Overcast
10:54 AM 46.0 °F - 37.0 °F 71% 30.14 in 10.0 mi Calm Calm - N/A   Overcast
11:54 AM 48.0 °F - 37.9 °F 68% 30.12 in 10.0 mi Calm Calm - N/A   Overcast
12:54 PM 51.1 °F - 37.9 °F 61% 30.10 in 10.0 mi West 3.5 mph - N/A   Overcast
1:54 PM 51.1 °F - 37.9 °F 61% 30.10 in 10.0 mi Calm Calm - N/A   Overcast
2:54 PM 51.1 °F - 37.9 °F 61% 30.11 in 10.0 mi Calm Calm - N/A   Overcast
3:54 PM 51.1 °F - 37.9 °F 61% 30.12 in 10.0 mi Calm Calm - 0.00 in   Overcast
4:54 PM 46.0 °F - 39.0 °F 76% 30.12 in 10.0 mi Calm Calm - N/A   Overcast
5:54 PM 45.0 °F - 39.0 °F 80% 30.14 in 10.0 mi Calm Calm - N/A   Overcast
6:54 PM 44.1 °F - 37.9 °F 79% 30.15 in 10.0 mi Calm Calm - N/A   Overcast
7:54 PM 43.0 °F - 37.9 °F 82% 30.15 in 10.0 mi Calm Calm - N/A   Overcast
8:54 PM 41.0 °F - 37.0 °F 86% 30.16 in 10.0 mi Calm Calm - N/A   Overcast
9:54 PM 36.0 °F - 34.0 °F 93% 30.17 in 7.0 mi Calm Calm - N/A   Clear
10:20 PM 35.6 °F - 33.8 °F 93% 30.15 in 1.5 mi Calm Calm - N/A   Clear
10:36 PM 35.6 °F - 33.8 °F 93% 30.15 in 3.0 mi Calm Calm - N/A   Clear
10:54 PM 33.1 °F - 32.0 °F 96% 30.17 in 8.0 mi Calm Calm - N/A   Clear
11:54 PM 32.0 °F - 30.9 °F 96% 30.18 in 6.0 mi Calm Calm - N/A   Clear